COSMOS 1275 DEB, 13799

Orbit data source: Space-Track

COSMOS 1275 DEB, 13799 is space debris in LEO originally from a launch on Thu, 04 Jun 1981 UTC launched from the Plesetsk Missile And Space Complex (PKMTR). Debris objects in space refer to the collection of defunct objects orbiting the Earth. Examples of debris include non-operational satellites, rocket bodies, and fragments generated from explosions, collisions, or faulty payload assembly.

Loading next visibility...
Identifier
13799, 1981-053GT
Orbit
LEO
Country
Flag of CISCIS
Related business
Manufacturer
Unknown
Mission
Spacecraft
Bus & Motor
Unknown
Mass
Unknown
Launch date (UTC)
1981-06-04 (45 years ago)
Launch vehicle
Unknown
Launch site
Plesetsk Missile And Space Complex (PKMTR)
Object type
Payload
Rocket body
Debris
Shape & HBR
Unknown shape, 0.1 m
Radar Cross Section
Small (<0.1 m²)

Expand to show TLE details & history
Last TLE update: 22 hours ago

TLE from 22 hours ago
0 COSMOS 1275 DEB
1 13799U 81053GT  25351.41624124  .00001064  00000-0  99257-3 0  9992
2 13799  83.1332 123.0934 0089022 276.9525 151.8128 13.79349124158946
Epoch: 2025-12-17T09:59Z
TLE epoch observation values (Epoch: 2025-12-17T09:59:23.243Z)
Latitude
68.26155°
Longitude
-95.55406°
Altitude
1,035.783 km
Speed
7.311 km/s
True Right ascension
09h 22m 19s
True Declination
68° 08' 51"
Sunlit
Object was in full shadow at epoch
Visualization orbit readout
Latitude
Unknown
Longitude
Unknown
Altitude
Unknown
Speed
Unknown
Apparent Right ascension
Unknown
Apparent Declination
Unknown
Sunlit
N/A
Visualization observer readout
Local Sidereal Time
07:02:05
Azimuth
Unknown
Elevation
Unknown
Doppler factor
Unknown
Orbital elements
Apogee altitude
1,028.687 km
Perigee altitude
897.976 km
Semi-major axis
7,341.468 km
Eccentricity
0.0089
Inclination
83.1332°
RAAN
123.0934°
Arg. of periapsis
276.9525°
True anomaly
152.28997°
Mean anomaly
151.8128°
Eccentric anomaly
152.05185°
Mean motion
3.45039 °/min
Orbital period
104.34 mins
BSTAR
0.00099257
Loading maneuver chart data...
Computing Atmospheric mass density...

Documentation

Showing up to 5 results
|